SAOCOM 1B

Last updated on Thu Nov 21 2024 00:02:13 GMT+0000 (Coordinated Universal Time)

1 46265U 20059A 24325.53022495 .00000997 00000+0 13182-3 0 9997 2 46265 97.8860 148.6131 0001413 89.6397 270.4978 14.82144352228528
UTC large
Height (km)
Speed (km/s)
/
Latitude / Longitude
Inclination (degrees)
Orbital Period (minutes)
Azimuth
Elevation
Range (km)
Doppler Factor

Next 0 passes for location: London (51.5072 / 0.1276)

Sorry there are no passes over London.